Notices

What's New in latest Release from April 7th, 2021:

- Updated Glossary, including Speed of Maximum Gust, and Total Hourly Precipitation

- Updated national and regional climate services offices contacts and prices information

- Addition of station inventory lists for 1981-2010, 1971-2000, and 1961-1990 Normals.

If you haven't already, please take our survey and provide feedback about our website: https://eccc.sondage-survey.ca/f/LanguageSelection.aspx?s=442ca660-fcf1-47c0-95a9-59707d6fd709

Hourly Data Report for March 03, 2020

MIRAMICHI RCS
NEW BRUNSWICK
Current Station Operator: ECCC - MSC

47°00'34.000" N
65°27'54.000" W
33.00 m
8100989
71744
ACQ

Download Data

Hourly Data (March 2020)
Hourly Data Report for March 3, 2020
TIME
LST
Temp Definition
°C
Dew Point Definition
°C
Rel Hum Definition
%
Precip. Amount Definition
mm

Wind Dir Definition
10's deg

Wind Spd Definition
km/h
Visibility Definition
km
Stn Press Definition
kPa
Hmdx Definition


Wind Chill Definition


Weather Definition


00:00 -1.7 -2.7 93 LegendMM 19 15   100.35   -7 LegendNANA
01:00 -1.2 -2.1 94 LegendMM 20 15   100.24   -6 LegendNANA
02:00 -0.6 -1.5 94 LegendMM 20 13   100.14   -5 LegendNANA
03:00 -0.3 -1.0 95 LegendMM 22 7   100.05   -3 LegendNANA
04:00 0.1 -0.5 96 LegendMM 28 4   100.01     LegendNANA
05:00 0.3 -0.2 96 LegendMM 26 5   99.99     LegendNANA
06:00 0.4 -0.1 97 LegendMM 29 3   99.99     LegendNANA
07:00 0.3 -0.1 97 LegendMM 22 4   100.01     LegendNANA
08:00 1.1 0.6 97 LegendMM 23 6   100.06     LegendNANA
09:00 2.0 1.5 96 LegendMM 25 9   100.10     LegendNANA
10:00 2.8 1.6 92 LegendMM 24 6   100.10     LegendNANA
11:00 3.9 2.3 89 LegendMM 23 10   100.10     LegendNANA
12:00 4.8 2.0 82 LegendMM 23 13   100.13     LegendNANA
13:00 5.9 2.0 76 LegendMM 29 15   100.11     LegendNANA
14:00 5.9 1.7 74 LegendMM 27 11   100.08     LegendNANA
15:00 7.1 0.3 62 LegendMM 28 14   100.07     LegendNANA
16:00 7.2 -0.1 60 LegendMM 30 9   100.05     LegendNANA
17:00 6.8 -0.2 61 LegendMM 30 12   100.07     LegendNANA
18:00 5.7 -0.8 63 LegendMM 31 4   100.11     LegendNANA
19:00 1.8 -1.0 82 LegendMM 2 4   100.17     LegendNANA
20:00 -1.3 -2.5 91 LegendMM 6 5   100.15   -3 LegendNANA
21:00 -1.2 -1.8 96 LegendMM 8 7   100.16   -4 LegendNANA
22:00 -0.3 -0.9 96 LegendMM 6 9   100.08   -3 LegendNANA
23:00 -0.6 -1.1 97 LegendMM 7 9   100.04   -4 LegendNANA

Notes on Data Quality.

Legend

  • E = Estimated
  • M = Missing
  • NA = Not Available*
  • [empty] = Indicates an unobserved value
Date modified: